QPF
0.08 0.09 0.07 0.05 0.05 0.06 0.08 0.09 0.09 0.08 0.08 0.08 0.05 0.04 0.05 0.04 0.03 0.03 0.03 0.03 0.03 0.05 0.09 0.11 0.13 0.14 0.14 0.13 0.13 0.14 0.11 0.10 0.11 0.09 0.07 0.06 0.05 0.05 0.06 0.07 0.07 0.05 0.05
0.07 0.07 0.06 0.05 0.05 0.05 0.07 0.09 0.09 0.08 0.08 0.08 0.05 0.05 0.05 0.04 0.04 0.04 0.04 0.04 0.03 0.04 0.06 0.09 0.11 0.13 0.13 0.12 0.12 0.14 0.13 0.12 0.11 0.10 0.10 0.09 0.07 0.05 0.05 0.06 0.06 0.06 0.05
0.06 0.06 0.06 0.06 0.06 0.07 0.08 0.09 0.10 0.09 0.08 0.07 0.07 0.07 0.05 0.04 0.05 0.05 0.05 0.04 0.05 0.04 0.04 0.05 0.06 0.08 0.09 0.10 0.11 0.12 0.13 0.12 0.11 0.10 0.09 0.08 0.08 0.06 0.06 0.07 0.07 0.07 0.07
0.09 0.08 0.06 0.07 0.08 0.08 0.08 0.09 0.09 0.09 0.09 0.09 0.08 0.07 0.05 0.05 0.04 0.04 0.04 0.04 0.06 0.04 0.03 0.03 0.03 0.04 0.05 0.07 0.10 0.10 0.11 0.10 0.09 0.09 0.08 0.07 0.07 0.06 0.06 0.07 0.07 0.07 0.06
0.07 0.07 0.07 0.08 0.08 0.09 0.10 0.09 0.09 0.11 0.11 0.11 0.09 0.07 0.06 0.05 0.04 0.03 0.03 0.03 0.05 0.04 0.04 0.03 0.03 0.03 0.04 0.05 0.07 0.09 0.10 0.10 0.09 0.06 0.06 0.06 0.06 0.05 0.05 0.05 0.06 0.06 0.06
0.08 0.07 0.08 0.10 0.09 0.10 0.12 0.12 0.11 0.09 0.08 0.08 0.08 0.06 0.05 0.04 0.03 0.03 0.02 0.02 0.04 0.04 0.05 0.04 0.05 0.03 0.03 0.04 0.05 0.06 0.08 0.09 0.09 0.07 0.06 0.06 0.06 0.05 0.05 0.05 0.05 0.05 0.05
0.08 0.08 0.08 0.09 0.10 0.10 0.11 0.11 0.09 0.09 0.08 0.07 0.07 0.05 0.04 0.04 0.03 0.02 0.02 0.02 0.02 0.02 0.04 0.05 0.05 0.05 0.03 0.02 0.03 0.03 0.05 0.08 0.09 0.10 0.10 0.09 0.06 0.05 0.06 0.06 0.06 0.06 0.05
0.11 0.11 0.09 0.08 0.09 0.10 0.10 0.08 0.08 0.08 0.08 0.08 0.08 0.08 0.06 0.04 0.03 0.02 0.02 0.01 0.02 0.02 0.02 0.03 0.04 0.04 0.03 0.03 0.02 0.01 0.02 0.04 0.07 0.08 0.10 0.10 0.07 0.07 0.07 0.07 0.07 0.06 0.05
0.12 0.12 0.13 0.11 0.12 0.11 0.09 0.07 0.07 0.08 0.09 0.10 0.11 0.12 0.10 0.07 0.05 0.04 0.02 0.02 0.02 0.02 0.01 0.02 0.02 0.03 0.03 0.04 0.04 0.03 0.01 0.02 0.05 0.09 0.11 0.11 0.11 0.11 0.10 0.09 0.07 0.07 0.07
0.18 0.17 0.18 0.17 0.14 0.11 0.09 0.07 0.07 0.07 0.08 0.09 0.10 0.10 0.09 0.08 0.07 0.05 0.03 0.02 0.02 0.01 0.01 0.02 0.02 0.04 0.03 0.03 0.04 0.02 0.02 0.02 0.03 0.06 0.10 0.10 0.11 0.10 0.11 0.10 0.08 0.07 0.06
0.15 0.17 0.19 0.19 0.15 0.11 0.08 0.07 0.08 0.07 0.07 0.08 0.09 0.09 0.09 0.08 0.07 0.06 0.04 0.02 0.01 0.01 0.01 0.02 0.03 0.03 0.03 0.03 0.04 0.04 0.02 0.01 0.02 0.04 0.06 0.09 0.09 0.09 0.09 0.09 0.09 0.09 0.09
0.15 0.17 0.17 0.17 0.16 0.13 0.10 0.07 0.07 0.07 0.07 0.08 0.09 0.09 0.09 0.08 0.08 0.08 0.06 0.04 0.02 0.01 0.01 0.02 0.02 0.03 0.03 0.03 0.03 0.02 0.01 0.01 0.02 0.03 0.04 0.06 0.08 0.08 0.08 0.07 0.07 0.07 0.08
0.15 0.16 0.15 0.15 0.15 0.13 0.12 0.10 0.09 0.08 0.08 0.10 0.11 0.10 0.08 0.07 0.07 0.07 0.06 0.05 0.04 0.02 0.02 0.02 0.03 0.02 0.02 0.03 0.04 0.03 0.02 0.01 0.02 0.03 0.03 0.05 0.07 0.06 0.05 0.05 0.06 0.06 0.06
0.14 0.15 0.17 0.18 0.17 0.15 0.12 0.10 0.10 0.09 0.09 0.10 0.10 0.11 0.11 0.08 0.07 0.07 0.06 0.05 0.04 0.03 0.02 0.02 0.03 0.03 0.03 0.03 0.04 0.04 0.03 0.02 0.02 0.03 0.03 0.04 0.07 0.07 0.05 0.05 0.05 0.05 0.05
0.13 0.15 0.15 0.15 0.13 0.12 0.11 0.10 0.08 0.05 0.06 0.07 0.08 0.10 0.10 0.08 0.07 0.06 0.05 0.06 0.06 0.05 0.04 0.04 0.04 0.04 0.04 0.04 0.04 0.05 0.05 0.04 0.03 0.03 0.03 0.03 0.06 0.07 0.05 0.05 0.04 0.04 0.03
0.11 0.11 0.12 0.12 0.11 0.10 0.08 0.08 0.06 0.05 0.04 0.06 0.08 0.10 0.10 0.10 0.09 0.07 0.05 0.06 0.06 0.06 0.06 0.06 0.05 0.05 0.05 0.05 0.06 0.06 0.06 0.05 0.04 0.03 0.03 0.03 0.04 0.05 0.05 0.04 0.04 0.04 0.04
0.13 0.11 0.09 0.10 0.10 0.10 0.08 0.07 0.05 0.04 0.04 0.04 0.05 0.07 0.10 0.12 0.11 0.09 0.08 0.07 0.08 0.08 0.08 0.07 0.05 0.06 0.05 0.06 0.08 0.09 0.08 0.07 0.06 0.06 0.04 0.03 0.03 0.04 0.05 0.04 0.05 0.05 0.06
0.06 0.07 0.08 0.08 0.08 0.08 0.07 0.05 0.04 0.04 0.05 0.05 0.05 0.06 0.08 0.10 0.11 0.10 0.10 0.09 0.09 0.08 0.09 0.08 0.08 0.07 0.05 0.06 0.06 0.06 0.07 0.06 0.06 0.07 0.06 0.04 0.03 0.04 0.06 0.06 0.06 0.06 0.05
0.11 0.08 0.09 0.08 0.08 0.07 0.05 0.04 0.03 0.03 0.04 0.05 0.06 0.08 0.08 0.09 0.10 0.11 0.10 0.08 0.08 0.07 0.07 0.06 0.06 0.05 0.05 0.05 0.06 0.05 0.06 0.06 0.05 0.05 0.05 0.06 0.06 0.05 0.06 0.07 0.05 0.04 0.04
0.12 0.13 0.09 0.07 0.06 0.06 0.05 0.04 0.03 0.03 0.03 0.03 0.04 0.05 0.05 0.04 0.05 0.06 0.06 0.05 0.05 0.05 0.06 0.06 0.05 0.06 0.06 0.04 0.06 0.06 0.08 0.08 0.06 0.05 0.05 0.06 0.08 0.08 0.07 0.06 0.05 0.04 0.03
0.07 0.09 0.09 0.07 0.05 0.05 0.04 0.04 0.03 0.03 0.03 0.03 0.03 0.04 0.04 0.03 0.02 0.02 0.03 0.03 0.03 0.05 0.05 0.06 0.07 0.08 0.08 0.06 0.06 0.05 0.06 0.08 0.07 0.07 0.06 0.06 0.06 0.07 0.07 0.06 0.05 0.04 0.04
0.07 0.09 0.10 0.10 0.08 0.05 0.04 0.03 0.02 0.02 0.03 0.03 0.03 0.03 0.03 0.02 0.02 0.02 0.02 0.02 0.02 0.04 0.04 0.05 0.06 0.07 0.07 0.07 0.07 0.06 0.07 0.07 0.08 0.09 0.10 0.10 0.07 0.08 0.07 0.07 0.04 0.02 0.03
0.05 0.05 0.05 0.05 0.05 0.05 0.04 0.02 0.02 0.02 0.03 0.03 0.03 0.03 0.02 0.02 0.01 0.01 0.01 0.01 0.01 0.02 0.03 0.04 0.05 0.05 0.05 0.05 0.05 0.06 0.06 0.08 0.08 0.08 0.09 0.11 0.10 0.10 0.09 0.08 0.05 0.03 0.02
0.04 0.05 0.05 0.04 0.03 0.03 0.03 0.02 0.01 0.02 0.03 0.03 0.02 0.02 0.02 0.02 0.02 0.02 0.02 0.02 0.02 0.02 0.02 0.02 0.03 0.03 0.03 0.03 0.04 0.04 0.05 0.07 0.07 0.05 0.06 0.08 0.08 0.08 0.08 0.07 0.04 0.04 0.03
0.05 0.05 0.05 0.03 0.02 0.03 0.03 0.02 0.01 0.02 0.03 0.03 0.02 0.02 0.01 0.01 0.01 0.01 0.02 0.02 0.03 0.02 0.01 0.01 0.01 0.01 0.01 0.01 0.01 0.02 0.02 0.04 0.05 0.04 0.05 0.06 0.06 0.05 0.05 0.05 0.04 0.04 0.04
0.04 0.04 0.03 0.02 0.02 0.02 0.02 0.01 0.01 0.02 0.02 0.03 0.02 0.02 0.01 0.00 0.00 0.00 0.01 0.02 0.02 0.02 0.01 0.01 0.01 0.01 0.00 0.00 0.00 0.01 0.02 0.03 0.04 0.04 0.04 0.04 0.04 0.05 0.05 0.04 0.04 0.03 0.03
MSLP
1009.71 1009.87 1010.03 1010.22 1010.46 1010.76 1011.10 1011.45 1011.79 1012.06 1012.24 1012.32 1012.32 1012.27 1012.21 1012.18 1012.23 1012.37 1012.58 1012.85 1013.13 1013.39 1013.61 1013.78 1013.91 1014.03 1014.18 1014.38 1014.66 1015.00 1015.38 1015.78 1016.14 1016.45 1016.69 1016.85 1016.96 1017.04 1017.12 1017.23 1017.37 1017.55 1017.75
1009.27 1009.44 1009.61 1009.80 1010.05 1010.35 1010.69 1011.06 1011.42 1011.73 1011.96 1012.09 1012.14 1012.12 1012.07 1012.03 1012.04 1012.11 1012.25 1012.43 1012.64 1012.85 1013.03 1013.18 1013.31 1013.45 1013.62 1013.84 1014.13 1014.48 1014.87 1015.28 1015.66 1015.98 1016.24 1016.43 1016.56 1016.66 1016.75 1016.85 1016.99 1017.16 1017.37
1008.94 1009.13 1009.31 1009.51 1009.74 1010.03 1010.37 1010.75 1011.13 1011.47 1011.75 1011.94 1012.04 1012.05 1012.02 1011.96 1011.92 1011.91 1011.95 1012.04 1012.15 1012.28 1012.41 1012.54 1012.66 1012.80 1012.98 1013.21 1013.50 1013.85 1014.24 1014.64 1015.03 1015.38 1015.67 1015.90 1016.07 1016.21 1016.33 1016.45 1016.60 1016.78 1016.99
1008.68 1008.89 1009.08 1009.27 1009.49 1009.76 1010.08 1010.45 1010.83 1011.21 1011.53 1011.78 1011.94 1012.00 1011.98 1011.91 1011.82 1011.74 1011.68 1011.66 1011.68 1011.72 1011.79 1011.88 1011.98 1012.11 1012.28 1012.50 1012.76 1013.09 1013.45 1013.85 1014.24 1014.62 1014.96 1015.25 1015.49 1015.70 1015.88 1016.05 1016.22 1016.42 1016.65
1008.39 1008.63 1008.83 1009.02 1009.22 1009.46 1009.75 1010.10 1010.48 1010.88 1011.25 1011.56 1011.77 1011.89 1011.90 1011.83 1011.71 1011.56 1011.42 1011.30 1011.23 1011.20 1011.20 1011.24 1011.31 1011.41 1011.54 1011.72 1011.95 1012.22 1012.55 1012.92 1013.32 1013.73 1014.12 1014.49 1014.83 1015.13 1015.40 1015.64 1015.86 1016.09 1016.34
1008.03 1008.29 1008.51 1008.69 1008.87 1009.08 1009.34 1009.66 1010.04 1010.45 1010.86 1011.22 1011.50 1011.68 1011.73 1011.68 1011.54 1011.35 1011.15 1010.96 1010.81 1010.71 1010.66 1010.66 1010.68 1010.74 1010.82 1010.94 1011.09 1011.30 1011.57 1011.91 1012.30 1012.73 1013.19 1013.65 1014.10 1014.51 1014.88 1015.21 1015.51 1015.79 1016.07
1007.55 1007.84 1008.07 1008.26 1008.43 1008.62 1008.85 1009.15 1009.51 1009.94 1010.37 1010.79 1011.13 1011.36 1011.47 1011.45 1011.32 1011.11 1010.88 1010.65 1010.45 1010.31 1010.21 1010.16 1010.15 1010.15 1010.17 1010.21 1010.28 1010.40 1010.59 1010.87 1011.24 1011.69 1012.20 1012.75 1013.31 1013.84 1014.33 1014.76 1015.14 1015.48 1015.81
1006.97 1007.28 1007.54 1007.74 1007.91 1008.08 1008.30 1008.58 1008.95 1009.37 1009.84 1010.29 1010.68 1010.97 1011.13 1011.15 1011.05 1010.86 1010.62 1010.38 1010.16 1010.00 1009.88 1009.80 1009.74 1009.69 1009.64 1009.59 1009.56 1009.58 1009.68 1009.88 1010.21 1010.65 1011.20 1011.82 1012.47 1013.11 1013.71 1014.25 1014.72 1015.14 1015.53
1006.35 1006.68 1006.96 1007.18 1007.36 1007.55 1007.76 1008.04 1008.40 1008.83 1009.31 1009.80 1010.23 1010.56 1010.77 1010.83 1010.77 1010.61 1010.39 1010.16 1009.96 1009.79 1009.67 1009.57 1009.49 1009.39 1009.27 1009.14 1009.01 1008.92 1008.91 1009.02 1009.28 1009.69 1010.24 1010.90 1011.61 1012.34 1013.04 1013.68 1014.24 1014.74 1015.19
1005.74 1006.09 1006.39 1006.64 1006.85 1007.06 1007.29 1007.58 1007.94 1008.38 1008.86 1009.36 1009.82 1010.18 1010.43 1010.53 1010.51 1010.39 1010.21 1010.01 1009.83 1009.69 1009.58 1009.49 1009.39 1009.26 1009.08 1008.87 1008.65 1008.45 1008.33 1008.33 1008.50 1008.85 1009.36 1010.02 1010.77 1011.55 1012.32 1013.04 1013.68 1014.26 1014.78
1005.19 1005.54 1005.87 1006.15 1006.40 1006.65 1006.91 1007.21 1007.59 1008.03 1008.51 1009.01 1009.48 1009.86 1010.13 1010.27 1010.29 1010.21 1010.07 1009.92 1009.78 1009.67 1009.59 1009.51 1009.41 1009.26 1009.05 1008.78 1008.48 1008.18 1007.95 1007.84 1007.91 1008.16 1008.62 1009.23 1009.97 1010.77 1011.58 1012.36 1013.07 1013.71 1014.30
1004.71 1005.06 1005.41 1005.72 1006.02 1006.30 1006.60 1006.93 1007.32 1007.76 1008.25 1008.74 1009.20 1009.59 1009.88 1010.05 1010.10 1010.07 1009.98 1009.87 1009.78 1009.71 1009.65 1009.60 1009.52 1009.37 1009.14 1008.82 1008.46 1008.08 1007.76 1007.55 1007.50 1007.66 1008.02 1008.57 1009.26 1010.05 1010.87 1011.68 1012.44 1013.14 1013.79
1004.29 1004.63 1004.99 1005.33 1005.67 1006.00 1006.33 1006.69 1007.10 1007.54 1008.02 1008.51 1008.97 1009.36 1009.66 1009.85 1009.94 1009.94 1009.90 1009.84 1009.79 1009.76 1009.74 1009.71 1009.65 1009.51 1009.27 1008.95 1008.55 1008.12 1007.72 1007.42 1007.28 1007.34 1007.60 1008.06 1008.69 1009.43 1010.24 1011.05 1011.84 1012.59 1013.29
1003.91 1004.23 1004.59 1004.95 1005.32 1005.68 1006.05 1006.44 1006.86 1007.32 1007.80 1008.28 1008.74 1009.13 1009.44 1009.66 1009.78 1009.82 1009.82 1009.80 1009.79 1009.79 1009.81 1009.80 1009.76 1009.64 1009.42 1009.09 1008.69 1008.24 1007.80 1007.44 1007.22 1007.19 1007.36 1007.73 1008.28 1008.96 1009.73 1010.53 1011.32 1012.09 1012.82
1003.55 1003.85 1004.19 1004.56 1004.94 1005.33 1005.73 1006.15 1006.59 1007.06 1007.55 1008.03 1008.49 1008.90 1009.23 1009.47 1009.63 1009.71 1009.74 1009.76 1009.77 1009.80 1009.83 1009.85 1009.82 1009.72 1009.52 1009.22 1008.83 1008.39 1007.95 1007.56 1007.30 1007.20 1007.29 1007.58 1008.05 1008.66 1009.37 1010.13 1010.91 1011.67 1012.40
1003.23 1003.49 1003.81 1004.16 1004.55 1004.95 1005.38 1005.82 1006.29 1006.77 1007.27 1007.77 1008.24 1008.67 1009.02 1009.30 1009.49 1009.61 1009.68 1009.72 1009.75 1009.79 1009.82 1009.84 1009.83 1009.74 1009.58 1009.31 1008.96 1008.56 1008.14 1007.76 1007.48 1007.35 1007.39 1007.60 1007.99 1008.53 1009.17 1009.87 1010.60 1011.33 1012.04
1002.99 1003.20 1003.48 1003.81 1004.19 1004.60 1005.05 1005.51 1006.00 1006.51 1007.03 1007.55 1008.04 1008.49 1008.87 1009.18 1009.41 1009.56 1009.65 1009.70 1009.74 1009.77 1009.80 1009.81 1009.79 1009.72 1009.58 1009.36 1009.07 1008.72 1008.35 1008.01 1007.75 1007.61 1007.61 1007.78 1008.10 1008.55 1009.11 1009.74 1010.40 1011.06 1011.72
1002.86 1003.02 1003.26 1003.56 1003.93 1004.35 1004.81 1005.30 1005.81 1006.34 1006.89 1007.42 1007.94 1008.41 1008.82 1009.16 1009.41 1009.58 1009.69 1009.75 1009.77 1009.79 1009.79 1009.79 1009.76 1009.69 1009.58 1009.40 1009.17 1008.89 1008.59 1008.31 1008.08 1007.95 1007.94 1008.06 1008.31 1008.69 1009.15 1009.69 1010.26 1010.84 1011.41
1002.89 1003.00 1003.19 1003.47 1003.84 1004.27 1004.74 1005.26 1005.79 1006.35 1006.91 1007.46 1007.99 1008.48 1008.91 1009.26 1009.53 1009.71 1009.82 1009.87 1009.88 1009.87 1009.84 1009.80 1009.76 1009.69 1009.60 1009.46 1009.28 1009.07 1008.84 1008.62 1008.45 1008.34 1008.32 1008.40 1008.60 1008.89 1009.26 1009.69 1010.15 1010.62 1011.09
1003.08 1003.14 1003.30 1003.58 1003.95 1004.39 1004.89 1005.43 1005.99 1006.56 1007.13 1007.69 1008.22 1008.71 1009.14 1009.50 1009.77 1009.95 1010.05 1010.08 1010.06 1010.02 1009.95 1009.89 1009.82 1009.74 1009.66 1009.56 1009.43 1009.28 1009.12 1008.96 1008.83 1008.74 1008.72 1008.77 1008.91 1009.11 1009.39 1009.71 1010.05 1010.42 1010.78
1003.38 1003.42 1003.58 1003.86 1004.25 1004.72 1005.25 1005.81 1006.39 1006.97 1007.54 1008.10 1008.62 1009.09 1009.50 1009.84 1010.10 1010.26 1010.35 1010.36 1010.32 1010.24 1010.14 1010.04 1009.95 1009.86 1009.78 1009.70 1009.61 1009.52 1009.41 1009.30 1009.21 1009.14 1009.11 1009.13 1009.21 1009.33 1009.51 1009.72 1009.96 1010.22 1010.49
1003.75 1003.80 1003.98 1004.29 1004.71 1005.22 1005.78 1006.36 1006.95 1007.53 1008.09 1008.62 1009.11 1009.55 1009.93 1010.24 1010.47 1010.62 1010.68 1010.67 1010.60 1010.50 1010.37 1010.25 1010.13 1010.04 1009.96 1009.89 1009.83 1009.77 1009.70 1009.63 1009.56 1009.51 1009.46 1009.45 1009.47 1009.52 1009.62 1009.74 1009.88 1010.06 1010.25
1004.13 1004.21 1004.44 1004.80 1005.27 1005.82 1006.41 1007.01 1007.60 1008.16 1008.69 1009.18 1009.63 1010.02 1010.36 1010.64 1010.84 1010.96 1011.00 1010.97 1010.89 1010.77 1010.62 1010.48 1010.35 1010.24 1010.16 1010.10 1010.05 1010.01 1009.97 1009.92 1009.87 1009.81 1009.75 1009.71 1009.68 1009.67 1009.70 1009.74 1009.82 1009.93 1010.07
1004.46 1004.62 1004.92 1005.34 1005.87 1006.45 1007.06 1007.66 1008.24 1008.78 1009.27 1009.71 1010.10 1010.44 1010.73 1010.96 1011.13 1011.23 1011.26 1011.22 1011.13 1011.00 1010.85 1010.70 1010.56 1010.45 1010.36 1010.30 1010.25 1010.22 1010.19 1010.15 1010.10 1010.04 1009.97 1009.89 1009.83 1009.77 1009.74 1009.74 1009.77 1009.84 1009.95
1004.76 1005.01 1005.39 1005.88 1006.45 1007.06 1007.68 1008.27 1008.82 1009.32 1009.75 1010.14 1010.47 1010.76 1011.00 1011.20 1011.34 1011.42 1011.44 1011.40 1011.31 1011.19 1011.04 1010.89 1010.74 1010.62 1010.52 1010.46 1010.41 1010.38 1010.34 1010.30 1010.25 1010.18 1010.09 1010.00 1009.90 1009.82 1009.75 1009.71 1009.71 1009.75 1009.85
1005.05 1005.41 1005.87 1006.43 1007.03 1007.65 1008.25 1008.82 1009.32 1009.76 1010.14 1010.46 1010.74 1010.97 1011.17 1011.33 1011.45 1011.52 1011.54 1011.51 1011.43 1011.31 1011.17 1011.02 1010.87 1010.74 1010.64 1010.56 1010.51 1010.46 1010.42 1010.38 1010.32 1010.24 1010.14 1010.03 1009.91 1009.80 1009.71 1009.64 1009.62 1009.64 1009.72
Thickness
5719 5717 5716 5714 5715 5714 5713 5711 5711 5710 5708 5708 5708 5709 5709 5709 5709 5710 5710 5707 5705 5704 5703 5702 5702 5701 5701 5700 5700 5698 5697 5697 5696 5695 5695 5695 5694 5694 5694 5695 5695 5694 5693
5715 5713 5711 5710 5710 5708 5708 5706 5707 5705 5704 5704 5704 5704 5704 5704 5704 5704 5705 5705 5703 5702 5701 5700 5699 5699 5698 5698 5698 5697 5696 5695 5694 5694 5693 5693 5693 5693 5693 5693 5693 5692 5692
5710 5708 5707 5706 5705 5705 5703 5701 5701 5701 5700 5700 5699 5699 5699 5700 5700 5699 5700 5701 5702 5700 5699 5698 5697 5696 5696 5696 5695 5695 5694 5693 5692 5692 5691 5691 5691 5691 5691 5691 5691 5691 5690
5704 5703 5703 5702 5700 5699 5698 5697 5696 5696 5695 5694 5694 5695 5695 5696 5696 5696 5696 5697 5697 5697 5697 5695 5694 5694 5693 5693 5693 5693 5692 5691 5690 5690 5690 5690 5690 5689 5689 5689 5689 5689 5689
5699 5697 5697 5696 5694 5694 5693 5693 5692 5690 5689 5689 5690 5690 5691 5691 5692 5693 5693 5693 5693 5692 5692 5692 5691 5691 5691 5690 5690 5690 5690 5689 5689 5688 5688 5688 5688 5688 5688 5687 5687 5687 5687
5693 5692 5691 5689 5689 5688 5687 5686 5684 5684 5684 5684 5686 5687 5687 5687 5687 5687 5688 5689 5688 5688 5688 5689 5689 5689 5688 5687 5687 5687 5687 5686 5686 5686 5686 5686 5687 5687 5686 5686 5685 5685 5685
5688 5686 5686 5684 5683 5682 5680 5680 5678 5678 5678 5678 5677 5678 5681 5682 5682 5682 5682 5683 5685 5685 5684 5684 5684 5685 5686 5684 5684 5683 5683 5683 5683 5684 5684 5684 5685 5685 5685 5684 5684 5683 5683
5682 5682 5680 5679 5677 5675 5674 5673 5671 5671 5672 5672 5670 5669 5670 5673 5675 5678 5677 5677 5677 5679 5680 5680 5679 5679 5680 5682 5681 5680 5679 5679 5680 5681 5682 5682 5682 5682 5682 5682 5682 5681 5681
5678 5676 5674 5672 5670 5669 5669 5667 5666 5664 5663 5665 5665 5662 5662 5664 5668 5671 5671 5671 5671 5672 5673 5674 5675 5675 5676 5676 5677 5676 5675 5675 5676 5678 5679 5679 5680 5680 5679 5679 5679 5679 5679
5673 5670 5668 5666 5665 5664 5662 5661 5660 5659 5657 5656 5657 5657 5656 5658 5655 5658 5663 5666 5666 5665 5667 5669 5670 5671 5671 5672 5671 5670 5670 5671 5672 5673 5674 5675 5676 5677 5677 5677 5677 5677 5677
5667 5665 5663 5661 5659 5658 5655 5653 5652 5651 5651 5650 5650 5650 5650 5650 5650 5648 5650 5655 5658 5661 5662 5662 5664 5665 5665 5666 5666 5666 5665 5665 5666 5668 5669 5671 5673 5673 5673 5674 5674 5674 5674
5662 5659 5658 5655 5653 5651 5648 5647 5645 5645 5644 5643 5643 5644 5643 5644 5645 5645 5646 5647 5650 5653 5655 5656 5657 5659 5660 5661 5661 5660 5660 5660 5661 5663 5664 5666 5667 5668 5669 5669 5670 5670 5670
5656 5653 5651 5648 5646 5643 5641 5640 5640 5639 5638 5636 5637 5638 5639 5640 5640 5641 5640 5642 5644 5647 5648 5650 5652 5653 5654 5655 5655 5653 5654 5655 5656 5658 5659 5660 5661 5662 5663 5664 5664 5664 5665
5651 5647 5644 5642 5640 5637 5635 5634 5635 5634 5633 5631 5632 5631 5632 5634 5634 5635 5634 5634 5635 5640 5643 5644 5646 5647 5648 5648 5648 5647 5650 5650 5651 5652 5652 5653 5654 5655 5657 5658 5658 5658 5659
5647 5643 5639 5636 5634 5631 5629 5628 5629 5628 5627 5627 5627 5627 5627 5629 5629 5630 5629 5629 5628 5631 5635 5638 5639 5641 5641 5642 5642 5643 5645 5644 5645 5646 5646 5647 5648 5649 5650 5651 5652 5652 5652
5641 5638 5635 5633 5630 5627 5625 5624 5624 5624 5622 5622 5622 5621 5622 5624 5624 5625 5625 5626 5626 5626 5628 5632 5633 5635 5634 5635 5635 5637 5639 5638 5639 5640 5640 5641 5642 5643 5644 5645 5645 5646 5646
5637 5635 5632 5629 5626 5624 5622 5620 5619 5618 5618 5618 5617 5618 5618 5618 5619 5621 5621 5621 5622 5623 5623 5627 5628 5628 5627 5627 5629 5630 5631 5633 5634 5634 5634 5635 5635 5636 5637 5638 5639 5639 5640
5634 5633 5629 5626 5623 5621 5619 5617 5616 5615 5614 5613 5613 5613 5613 5614 5613 5615 5615 5616 5616 5617 5617 5618 5620 5621 5621 5621 5622 5623 5625 5626 5627 5627 5627 5628 5628 5629 5631 5632 5632 5633 5633
5630 5628 5625 5622 5620 5618 5616 5615 5613 5612 5611 5610 5609 5609 5608 5608 5608 5609 5609 5610 5611 5613 5613 5613 5614 5614 5615 5615 5615 5616 5618 5618 5620 5620 5621 5621 5622 5623 5624 5625 5626 5627 5627
5625 5624 5622 5619 5617 5616 5614 5612 5610 5609 5608 5607 5606 5605 5604 5604 5603 5603 5604 5603 5604 5605 5606 5607 5608 5609 5609 5609 5610 5611 5611 5613 5614 5616 5616 5617 5616 5617 5618 5619 5620 5620 5621
5622 5620 5618 5615 5614 5613 5610 5607 5606 5606 5604 5603 5602 5601 5599 5597 5596 5596 5597 5598 5598 5599 5600 5600 5601 5602 5603 5603 5604 5605 5606 5606 5608 5609 5611 5612 5613 5614 5615 5614 5614 5615 5615
5617 5615 5613 5612 5610 5609 5602 5599 5598 5600 5600 5599 5598 5597 5596 5595 5592 5590 5589 5589 5589 5592 5593 5594 5596 5596 5596 5597 5597 5598 5599 5599 5601 5604 5604 5606 5609 5609 5611 5612 5612 5611 5610
5613 5612 5610 5609 5607 5603 5598 5595 5594 5595 5597 5596 5594 5593 5593 5592 5589 5588 5586 5584 5584 5584 5583 5586 5588 5589 5590 5591 5590 5591 5591 5592 5593 5596 5596 5598 5601 5603 5606 5608 5606 5605 5604
5610 5609 5607 5606 5603 5601 5596 5593 5591 5593 5594 5593 5591 5590 5588 5587 5586 5583 5584 5584 5584 5583 5582 5582 5583 5583 5584 5584 5584 5584 5584 5586 5587 5589 5590 5591 5595 5598 5601 5601 5600 5599 5598
5607 5606 5605 5603 5601 5598 5593 5590 5588 5592 5591 5590 5589 5587 5585 5583 5578 5576 5578 5580 5580 5579 5577 5576 5575 5575 5575 5575 5575 5577 5580 5581 5583 5586 5587 5587 5589 5591 5595 5597 5596 5594 5593
5605 5605 5604 5602 5600 5597 5592 5588 5585 5590 5589 5588 5588 5586 5581 5578 5574 5572 5575 5576 5576 5576 5576 5576 5573 5572 5573 5573 5571 5572 5576 5577 5578 5581 5582 5581 5584 5585 5587 5592 5593 5591 5590